sat.trackr.live / text

‹ back to catalog

STARLINK-35144

NORAD 65538 · 2025-200U

PAYLOAD ACTIVE UNKNOWN

§ Identity

Operator
Country
US
Launch date
2025-09-06
Launch site
AFWTR
Launch vehicle
Mass (kg)
RCS (m²)

Purposes: comms

External: N2YO · Heavens-Above · Gunter

§ Orbital elements

Epoch: 2026-05-25T03:29:40.322976Z

Period
95.64 min
Inclination
97.4475°
Eccentricity
0.0002380
Mean motion
15.05659921 rev/d
Perigee alt
547.8 km
Apogee alt
551.1 km
Semi-major
6,927.6 km
B*
4.2964e-4
RAAN
214.7678°
Arg perigee
132.4914°
Mean anomaly
227.6514°
Rev number
4,063

§ Raw data

STARLINK-351441 65538U 25200U   26145.14560559  .00006148  00000+0  42964-3 0  99952 65538  97.4475 214.7678 0002380 132.4914 227.6514 15.05659921 40630

JSON: /api/v1/satellites/65538 · /tle

For live sub-satellite position, see the globe view (requires WebGL).

§ Visibility from observer

Set your observer location to see the next 7 days of passes ≥ 10°. The values pass through the URL so the page stays shareable.

No JS? Fill the form by hand. The geolocation button needs JavaScript.